Location: Rogers' Astrophysics Observatory
(34.4289°N, 82.8708°W)
Time: 09:25:52
(UTC-04:00)

ISS - Visible Passes

Search period start: 21 October 2018 00:00
Search period end: 31 October 2018 00:00
Orbit: 403 x 408 km, 51.6° (Epoch: 21 October)

Date Brightness Start Highest point End Pass type
(mag) Time Alt. Az. Time Alt. Az. Time Alt. Az.
25 Oct -1.2 06:29:48 10° S 06:32:18 21° SE 06:34:50 10° ENE visible
26 Oct -3.7 07:13:21 10° WSW 07:16:34 58° NW 07:19:48 10° NE visible
27 Oct -3.4 06:23:11 30° SSW 06:24:34 61° SE 06:27:48 10° NE visible
28 Oct -1.0 05:34:10 19° E 05:34:10 19° E 05:35:28 10° ENE visible
28 Oct -2.5 07:06:53 13° W 07:09:05 24° NW 07:11:49 10° NNE visible
29 Oct -2.9 06:17:37 37° N 06:17:37 37° N 06:20:05 10° NE visible
30 Oct -1.6 07:00:52 11° NW 07:01:44 12° NNW 07:03:10 10° N visible
